Weather History for Chattanooga, TN

Change the Weather History Date:

Sunday, August 10, 2014

  Actual Average Record
Temperature  
Mean Temperature 82 °F 80 °F  
Max Temperature 88 °F 90 °F 104 °F (1980)
Min Temperature 75 °F 70 °F 59 °F (1976)
Degree Days  
Heating Degree Days 0 0  
Month to date heating degree days 0 0  
Since 1 June heating degree days 0 2  
Since 1 July heating degree days 0 0  
Cooling Degree Days 17 15  
Month to date cooling degree days 138 150  
Year to date cooling degree days 1192 1154  
Since 1 June cooling degree days 934 958  
Growing Degree Days 32 (Base 50)    
Moisture  
Dew Point 71 °F    
Average Humidity 73    
Maximum Humidity 88    
Minimum Humidity 57    
Precipitation  
Precipitation 0.22 in 0.12 in 1.79 in (1936)
Month to date precipitation 0.91 1.25  
Year to date precipitation 25.76 33.03  
Snow  
Snow 0.00 in 0.00 in - ()
Month to date snowfall 0.0 0.0  
Since 1 June snowfall 0.0 0.0  
Since 1 July snowfall 0.0 0.0  
Snow Depth 0.00 in    
Sea Level Pressure  
Sea Level Pressure 29.98 in    
Wind  
Wind Speed 4 mph (SSE)    
Max Wind Speed 24 mph    
Max Gust Speed 30 mph    
Visibility 9 miles    
Events Rain , Thunderstorm    
T = Trace of Precipitation, MM = Missing Value Source: NWS Daily Summary

Daily Weather History Graph

Daily Weather History Graph

Search for Another Location

Airport:

Trip Planner

Search our weather history database for the weather conditions in past years. The results will help you decide how hot, cold, wet, or windy it might be!

Date:

Astronomy

Aug. 10, 2014 Rise Set
Actual Time 6:56 AM EDT 8:34 PM EDT
Civil Twilight 6:29 AM EDT 9:01 PM EDT
Nautical Twilight 5:57 AM EDT 9:34 PM EDT
Astronomical Twilight 5:22 AM EDT 10:08 PM EDT
Moon 8:24 PM EDT (8/10) 6:46 AM EDT (8/10)
Length of Visible Light 14h 32m
Length of Day
13h 37m
Full, 100% of the Moon is Illuminated
Aug 10
Full
Aug 10
Full
Aug 17
Last Quarter
Aug 25
New
Sep 2
First Quarter

Hourly Weather History & Observations

Time (EDT) Temp. Heat Index Dew Point Humidity Pressure Visibility Wind Dir Wind Speed Gust Speed Precip Events Conditions
12:22 AM 77.0 °F - 72.0 °F 84% 30.00 in 10.0 mi South 4.6 mph - N/A   Partly Cloudy
12:53 AM 75.9 °F - 71.1 °F 85% 29.95 in 10.0 mi South 8.1 mph - N/A   Clear
1:53 AM 75.9 °F - 71.1 °F 85% 29.96 in 10.0 mi Calm Calm - N/A   Mostly Cloudy
2:42 AM 75.9 °F - 70.0 °F 82% 29.98 in 10.0 mi ESE 3.5 mph - N/A   Overcast
2:53 AM 75.9 °F - 71.1 °F 85% 29.95 in 10.0 mi SE 4.6 mph - N/A   Overcast
3:53 AM 75.0 °F - 70.0 °F 84% 29.95 in 10.0 mi Variable 3.5 mph - N/A   Clear
4:08 AM 75.0 °F - 70.0 °F 84% 29.98 in 10.0 mi Calm Calm - N/A   Partly Cloudy
4:34 AM 75.0 °F - 70.0 °F 84% 29.98 in 10.0 mi ESE 3.5 mph - N/A   Mostly Cloudy
4:50 AM 75.2 °F - 69.8 °F 83% 29.98 in 10.0 mi South 3.5 mph - N/A   Overcast
4:53 AM 75.0 °F - 70.0 °F 84% 29.96 in 10.0 mi South 4.6 mph - N/A   Overcast
5:13 AM 75.0 °F - 70.0 °F 84% 29.99 in 10.0 mi Calm Calm - N/A   Overcast
5:53 AM 75.0 °F - 70.0 °F 84% 29.98 in 10.0 mi Calm Calm - N/A   Overcast
6:53 AM 75.0 °F - 70.0 °F 84% 29.99 in 8.0 mi Calm Calm - N/A   Overcast
7:53 AM 75.0 °F - 71.1 °F 87% 30.01 in 6.0 mi SE 4.6 mph - N/A   Overcast
8:53 AM 75.9 °F - 71.1 °F 85% 30.02 in 6.0 mi South 4.6 mph - N/A   Mostly Cloudy
9:53 AM 78.8 °F - 71.6 °F 78% 30.04 in 6.0 mi SE 4.6 mph - N/A   Mostly Cloudy
10:25 AM 79.0 °F - 72.0 °F 79% 30.04 in 6.0 mi South 4.6 mph - N/A   Mostly Cloudy
10:53 AM 80.1 °F 83.8 °F 72.0 °F 76% 30.02 in 6.0 mi South 5.8 mph - N/A   Mostly Cloudy
11:21 AM 81.0 °F 85.2 °F 72.0 °F 74% 30.05 in 10.0 mi South 4.6 mph - N/A   Mostly Cloudy
11:53 AM 81.0 °F 84.9 °F 71.1 °F 72% 30.02 in 10.0 mi South 4.6 mph - N/A   Mostly Cloudy
12:53 PM 84.0 °F 89.0 °F 71.1 °F 65% 30.01 in 10.0 mi South 9.2 mph - N/A   Mostly Cloudy
1:45 PM 86.0 °F 91.5 °F 71.1 °F 61% 30.02 in 10.0 mi South 6.9 mph - N/A   Mostly Cloudy
1:53 PM 86.0 °F 90.7 °F 70.0 °F 59% 29.99 in 10.0 mi South 10.4 mph - N/A   Mostly Cloudy
2:53 PM 84.0 °F 90.2 °F 73.0 °F 69% 29.97 in 10.0 mi WSW 4.6 mph - 0.01 in Rain Light Rain
3:53 PM 80.6 °F 85.4 °F 73.4 °F 79% 30.00 in 10.0 mi SE 6.9 mph - N/A Thunderstorm Mostly Cloudy
4:29 PM 84.0 °F 90.2 °F 73.0 °F 69% 29.99 in 10.0 mi SE 5.8 mph - N/A   Mostly Cloudy
4:53 PM 86.0 °F 92.2 °F 72.0 °F 63% 29.95 in 10.0 mi SE 5.8 mph - N/A   Mostly Cloudy
5:15 PM 84.9 °F 90.7 °F 72.0 °F 65% 29.97 in 10.0 mi ESE 12.7 mph - N/A Thunderstorm Thunderstorm
5:53 PM 81.0 °F 83.0 °F 66.0 °F 60% 29.95 in 3.0 mi NNE 19.6 mph 29.9 mph 0.00 in Rain , Thunderstorm Heavy Thunderstorms and Rain
5:58 PM 77.0 °F - 66.9 °F 71% 29.98 in 1.0 mi NNW 9.2 mph 29.9 mph N/A Rain , Thunderstorm Thunderstorms and Rain
6:10 PM 77.0 °F - 69.1 °F 76% 29.97 in 7.0 mi SSW 5.8 mph - 0.18 in Rain , Thunderstorm Light Thunderstorms and Rain
6:21 PM 78.1 °F - 69.1 °F 74% 29.97 in 10.0 mi Calm Calm - 0.19 in   Mostly Cloudy
6:27 PM 77.0 °F - 72.0 °F 84% 29.97 in 10.0 mi Calm Calm - 0.19 in Thunderstorm Thunderstorm
6:53 PM 75.9 °F - 72.0 °F 87% 29.94 in 10.0 mi WNW 4.6 mph - 0.19 in   Mostly Cloudy
7:53 PM 78.8 °F - 71.6 °F 78% 29.96 in 10.0 mi Calm Calm - N/A   Mostly Cloudy
8:53 PM 77.0 °F - 73.0 °F 88% 29.95 in 10.0 mi Calm Calm - N/A   Mostly Cloudy
9:53 PM 78.1 °F - 73.9 °F 87% 29.97 in 10.0 mi Calm Calm - N/A   Mostly Cloudy
10:53 PM 78.1 °F - 73.0 °F 84% 29.98 in 10.0 mi Calm Calm - N/A   Mostly Cloudy